Regional Weather Roundup
Issued by NWS

Home | Current Version | Previous Version | Graphics & Text | Print | Product List | Glossary On
Versions: 1 2 3 4 5 6 7 8 9 10 11 12 13 14 15 16 17 18 19 20 21 22 23 24 25 26 27 28 29 30 31 32 33 34 35 36 37 38 39 40 41 42 43 44 45 46 47 48 49 50
000
ASUS43 KLOT 291703
RWRIL

ILLINOIS REGIONAL WEATHER ROUNDUP
NATIONAL WEATHER SERVICE CHICAGO/ROMEOVILLE IL
1200 PM CDT SUN MAY 29 2016

NOTE: "FAIR" INDICATES FEW OR NO CLOUDS BELOW 12,000 FEET WITH NO
SIGNIFICANT WEATHER AND/OR OBSTRUCTIONS TO VISIBILITY.

* THESE STATIONS ARE NOT UNDER NWS QUALITY CONTROL. THEY ALSO MAY NOT
  REPORT WEATHER SUCH AS PRECIPITATION OR FOG.

ILZ001-002-007-009-015-016-024-291800-
NORTHWEST ILLINOIS

CITY           SKY/WX    TMP DP  RH WIND       PRES   REMARKS
MOLINE         MOSUNNY   77  61  57 W12       30.05S
STERLING*      PTSUNNY   74  62  66 W12       30.04S
$$

ILZ003-004-008-010-011-017-018-291800-
NORTH CENTRAL ILLINOIS

CITY           SKY/WX    TMP DP  RH WIND       PRES   REMARKS
ROCKFORD       PTSUNNY   73  60  63 W13       30.03F
FREEPORT*      PTSUNNY   73  59  63 W14G22    30.04R
ROCHELLE*      PTSUNNY   72  62  72 W15       30.04S
$$

ILZ005-006-012>014-019>023-291800-
NORTHEAST ILLINOIS

CITY           SKY/WX    TMP DP  RH WIND       PRES   REMARKS
CHICAGO-OHARE  PTSUNNY   75  61  61 W17G23    30.01R
CHICAGO-MIDWAY MOSUNNY   77  57  50 SW20G26   30.01R
AURORA         MOSUNNY   73  63  70 W12       30.04S
LANSING*       PTSUNNY   80  59  49 SW18G29   30.01S HX  80
WAUKEGAN       PTSUNNY   73  62  68 W8        29.99S
DUPAGE AIRPORT MOSUNNY   73  61  65 W17       30.03R
WHEELING       PTSUNNY   74  60  61 W14G25    30.02R
NORTHERLY ISL    N/A     76  55  48 W14         N/A
NORTHERLY ISL    N/A     76  55  48 W14         N/A
$$

LMZ740>746-291800-
SOUTHERN LAKE MICHIGAN

STATION/POSITION SKY/WX   TEMP    WIND        PRES    VSBY  WAVE
                          AIR SEA DIR/SP/G                  HT/PER
                          (F)     (DEG/KT/KT) (MB)    (MI)  (FT/S)
SOUTHERN BUOY              54 50  180/ 12/ 12 1015.0          1/ 3
WILMETTE HARBOR            67 53  260/ 14/ 19   N/A           1/ 2
HARRISON CRIB              75     230/ 19/ 22   N/A
BURNHAM HARBOR             76     260/ 11/ 18   N/A
CALUMET HARBOR             77     210/ 14/ 22 1015.5R
BURNS HARBOR               77     220/ 19/ 24 1016.6F
MICHIGAN CITY              76     190/ 18/ 20   N/A
MICHIGAN CITY 6N           66 58  230/  8/ 12   N/A           1
ST. JOSEPH                 66 62  230/  6/  8   N/A           1/ 2
$$

ILZ025>027-034>036-040-047-049-050-058-095>099-291800-
WEST-CENTRAL ILLINOIS

CITY           SKY/WX    TMP DP  RH WIND       PRES   REMARKS
QUINCY         SUNNY     78  59  51 W9        30.10R
MACOMB*        SUNNY     76  60  55 NW9G16    30.10S
PITTSFIELD*    SUNNY     79  62  54 W7        30.11S HX  81
$$

ILZ028>032-037-038-041>044-048-051>054-059>061-291800-
CENTRAL ILLINOIS

CITY           SKY/WX    TMP DP  RH WIND       PRES   REMARKS
BLOOMINGTON    SUNNY     77  62  59 W13       30.09R
DECATUR        MOSUNNY   82  59  45 W12G17    30.08S HX  82
PEORIA         MOSUNNY   79  59  50 W10       30.07R HX  80
SPRINGFIELD    SUNNY     83  59  44 NW12G21   30.09R HX  83
TAYLORVILLE    NOT AVBL
$$

ILZ033-039-045-046-055>057-062-063-291800-
EAST-CENTRAL ILLINOIS

CITY           SKY/WX    TMP DP  RH WIND       PRES   REMARKS
CHAMPAIGN      MOSUNNY   81  58  45 W16       30.09R HX  81
MATTOON        MOSUNNY   81  61  50 W7        30.09R HX  82
$$

ILZ079-100>102-291800-
SOUTHWEST ILLINOIS

CITY           SKY/WX    TMP DP  RH WIND       PRES   REMARKS
ALTON          MOSUNNY   81  59  47 W7        30.12R HX  81
BELLEVILLE     MOSUNNY   83  62  49 NW8       30.10R HX  83
CAHOKIA*       MOSUNNY   84  56  38 VRB7      30.11R HX  83
SPARTA*        MOSUNNY   80  64  57 CALM      30.13R HX  82
$$

ILZ064>066-069>071-074>076-080>082-084>086-088>090-092>094-291800-
SOUTH-CENTRAL ILLINOIS

CITY           SKY/WX    TMP DP  RH WIND       PRES   REMARKS
CARBONDALE     MOSUNNY   80  64  58 NW6       30.11S HX  82
MT. VERNON     MOSUNNY   82  66  57 CALM      30.11S HX  85
SALEM*         PTSUNNY   82  64  54 W5        30.11R HX  83
$$

ILZ067-068-072-073-078-083-087-091-291800-
SOUTHEAST ILLINOIS

CITY           SKY/WX    TMP DP  RH WIND       PRES   REMARKS
LAWRENCEVILLE  MOSUNNY   82  67  60 SW8       30.08F HX  84
FLORA*         MOSUNNY   82  67  60 NW3       30.10S HX  84
HARRISBURG*    PTSUNNY   80  71  75 CALM      30.10S HX  83
ROBINSON*      PTSUNNY   82  68  61 W6        30.09S HX  85
$$

ABBREVIATIONS USED IN REMARKS
   TC - TEMPERATURE IN CELSIUS
  WCI - WIND CHILL INDEX
   HX - HEAT INDEX
  VSB - VISIBILITY
$$





USA.gov is the U.S. government's official web portal to all federal, state and local government web resources and services.